Back to catalog

STARLINK-38279

AliveCommunicationsSSO
NORAD 100262·PAYLOAD·🇺🇸 United States

Launched Aug 8, 2026 from Vandenberg Space Force Base

Loading…

Next Passes (next 24 hours)

TLE

FreshSource: Space-Track

Epoch: Sep 14, 2026, 13:03 UTC

1 A0262U 26181S   26257.54439054  .00234518  00000-0  15252-2 0  9994
2 A0262  97.2830 300.8572 0001120  28.6096 331.5231 15.75269294  7028

Track STARLINK-38279 in real time with AllMySat

Download on the App Store